owner,sensor,date,latitude,longitude,vertical_datum,direction_of_sea_water_velocity,sea_water_speed,upward_sea_water_velocity,qcFlag 
TABS,ioos:station:wmo:42050:1,2003-06-01T00:00:00Z,28.8425,-94.2433,2.0,174.0004719,30.99978226,-99999.0,'11111222,11111222,99999999' 
TABS,ioos:station:wmo:42050:1,2003-06-01T00:30:00Z,28.8425,-94.2433,2.0,179.9997895,36.0,-99999.0,'11111222,11111222,99999999' 
TABS,ioos:station:wmo:42050:1,2003-06-01T01:00:00Z,28.8425,-94.2433,2.0,174.0041276,8.999227745,-99999.0,'11133222,11111222,99999999' 
TABS,ioos:station:wmo:42050:1,2003-06-01T01:30:00Z,28.8425,-94.2433,2.0,154.9987339,68.00179777,-99999.0,'11111222,11111222,99999999' 
TABS,ioos:station:wmo:42050:1,2003-06-03T08:00:00Z,28.8425,-94.2433,2.0,34.13792701,21.65060969,-99999.0,'11111222,11111222,99999999' 
TABS,ioos:station:wmo:42050:1,2003-06-03T08:30:00Z,28.8425,-94.2433,2.0,42.49728411,21.21222525,-99999.0,'11111222,11111222,99999999' 
TABS,ioos:station:wmo:42050:1,2003-06-03T09:00:00Z,28.8425,-94.2433,2.0,49.98916213,21.79073656,-99999.0,'11111222,11111222,99999999' 
TABS,ioos:station:wmo:42050:1,2003-06-03T09:30:00Z,28.8425,-94.2433,2.0,63.75696277,20.69289975,-99999.0,'11111222,11111222,99999999' 
TABS,ioos:station:wmo:42050:1,2003-06-03T10:00:00Z,28.8425,-94.2433,2.0,66.10911257,23.58041772,-99999.0,'11111222,11111222,99999999' 
TABS,ioos:station:wmo:42050:1,2003-06-03T10:30:00Z,28.8425,-94.2433,2.0,59.46124489,5.549846845,-99999.0,'11133222,11111222,99999999' 
TABS,ioos:station:wmo:42050:1,2003-06-03T11:00:00Z,28.8425,-94.2433,2.0,70.85643072,3.323808057,-99999.0,'11133222,11111222,99999999' 
TABS,ioos:station:wmo:42050:1,2003-06-03T11:30:00Z,28.8425,-94.2433,2.0,75.36779991,21.21816439,-99999.0,'11111222,11111222,99999999' 
TABS,ioos:station:wmo:42050:1,2003-06-03T12:00:00Z,28.8425,-94.2433,2.0,86.50714238,19.69658854,-99999.0,'11111222,11111222,99999999' 
TABS,ioos:station:wmo:42050:1,2003-06-03T12:30:00Z,28.8425,-94.2433,2.0,84.08053883,14.73858881,-99999.0,'11111222,11111222,99999999' 
TABS,ioos:station:wmo:42050:1,2003-06-03T13:00:00Z,28.8425,-94.2433,2.0,125.6673807,13.34293821,-99999.0,'11111222,11111222,99999999' 
TABS,ioos:station:wmo:42050:1,2003-06-03T13:30:00Z,28.8425,-94.2433,2.0,126.8631631,17.23600012,-99999.0,'11111222,11111222,99999999' 
TABS,ioos:station:wmo:42050:1,2003-06-03T14:00:00Z,28.8425,-94.2433,2.0,132.9383994,12.58050078,-99999.0,'11111222,11111222,99999999' 
TABS,ioos:station:wmo:42050:1,2003-06-03T14:30:00Z,28.8425,-94.2433,2.0,131.7405651,12.4369128,-99999.0,'11111222,11111222,99999999' 
TABS,ioos:station:wmo:42050:1,2003-06-03T15:00:00Z,28.8425,-94.2433,2.0,147.0304627,2.646129249,-99999.0,'11133222,11111222,99999999' 
TABS,ioos:station:wmo:42050:1,2003-06-03T15:30:00Z,28.8425,-94.2433,2.0,137.5272858,4.650215049,-99999.0,'11133222,11111222,99999999' 
TABS,ioos:station:wmo:42050:1,2003-06-03T16:00:00Z,28.8425,-94.2433,2.0,128.1362189,4.615127301,-99999.0,'11133222,11111222,99999999' 
TABS,ioos:station:wmo:42050:1,2003-06-03T16:30:00Z,28.8425,-94.2433,2.0,134.1318454,3.73395233,-99999.0,'11133222,11111222,99999999' 
TABS,ioos:station:wmo:42050:1,2003-06-03T17:00:00Z,28.8425,-94.2433,2.0,154.0301774,5.594944146,-99999.0,'11133222,11111222,99999999' 
TABS,ioos:station:wmo:42050:1,2003-06-03T17:30:00Z,28.8425,-94.2433,2.0,160.0444812,8.819535135,-99999.0,'11133222,11111222,99999999' 
TABS,ioos:station:wmo:42050:1,2003-06-03T18:00:00Z,28.8425,-94.2433,2.0,143.7154369,7.046367859,-99999.0,'11133222,11111222,99999999' 
TABS,ioos:station:wmo:42050:1,2003-06-03T18:30:00Z,28.8425,-94.2433,2.0,151.7039535,7.995354901,-99999.0,'11133222,11111222,99999999' 
TABS,ioos:station:wmo:42050:1,2003-06-03T19:00:00Z,28.8425,-94.2433,2.0,152.9560179,8.027764321,-99999.0,'11133222,11111222,99999999' 
TABS,ioos:station:wmo:42050:1,2003-06-03T19:30:00Z,28.8425,-94.2433,2.0,142.1634255,7.825113418,-99999.0,'11133222,11111222,99999999' 
TABS,ioos:station:wmo:42050:1,2003-06-03T20:00:00Z,28.8425,-94.2433,2.0,128.7883686,9.737458601,-99999.0,'11133222,11111222,99999999' 
TABS,ioos:station:wmo:42050:1,2003-06-03T20:30:00Z,28.8425,-94.2433,2.0,182.5343607,4.974866832,-99999.0,'11133222,11111222,99999999' 
TABS,ioos:station:wmo:42050:1,2003-06-03T21:00:00Z,28.8425,-94.2433,2.0,173.4401891,4.90209139,-99999.0,'11133222,11111222,99999999' 
TABS,ioos:station:wmo:42050:1,2003-06-03T21:30:00Z,28.8425,-94.2433,2.0,171.3066222,5.75612717,-99999.0,'11133222,11111222,99999999' 
TABS,ioos:station:wmo:42050:1,2003-06-03T22:00:00Z,28.8425,-94.2433,2.0,150.3866665,19.42761179,-99999.0,'11111222,11111222,99999999' 
TABS,ioos:station:wmo:42050:1,2003-06-03T22:30:00Z,28.8425,-94.2433,2.0,156.8048757,20.76873853,-99999.0,'11111222,11111222,99999999' 
TABS,ioos:station:wmo:42050:1,2003-06-03T23:00:00Z,28.8425,-94.2433,2.0,152.1192653,21.427179,-99999.0,'11111222,11111222,99999999' 
TABS,ioos:station:wmo:42050:1,2003-06-03T23:30:00Z,28.8425,-94.2433,2.0,158.2299989,16.8518545,-99999.0,'11111222,11111222,99999999' 
TABS,ioos:station:wmo:42050:1,2003-06-04T00:00:00Z,28.8425,-94.2433,2.0,156.1419344,4.450269655,-99999.0,'11133222,11111222,99999999' 
TABS,ioos:station:wmo:42050:1,2003-06-04T00:30:00Z,28.8425,-94.2433,2.0,177.9482854,3.352148565,-99999.0,'11133222,11111222,99999999' 
TABS,ioos:station:wmo:42050:1,2003-06-04T01:00:00Z,28.8425,-94.2433,2.0,106.4844146,2.044015656,-99999.0,'11133222,11111222,99999999' 
TABS,ioos:station:wmo:42050:1,2003-06-04T01:30:00Z,28.8425,-94.2433,2.0,172.4586755,14.85851271,-99999.0,'11111222,11111222,99999999' 
TABS,ioos:station:wmo:42050:1,2003-06-04T02:00:00Z,28.8425,-94.2433,2.0,182.951109,21.55859457,-99999.0,'11111222,11111222,99999999' 
TABS,ioos:station:wmo:42050:1,2003-06-04T02:30:00Z,28.8425,-94.2433,2.0,192.2228878,23.38001283,-99999.0,'11111222,11111222,99999999' 
TABS,ioos:station:wmo:42050:1,2003-06-04T03:00:00Z,28.8425,-94.2433,2.0,195.9946954,20.6494213,-99999.0,'11111222,11111222,99999999' 
TABS,ioos:station:wmo:42050:1,2003-06-04T03:30:00Z,28.8425,-94.2433,2.0,192.8716149,20.28986939,-99999.0,'11111222,11111222,99999999' 
TABS,ioos:station:wmo:42050:1,2003-06-04T04:00:00Z,28.8425,-94.2433,2.0,201.4421944,21.63764544,-99999.0,'11111222,11111222,99999999' 
TABS,ioos:station:wmo:42050:1,2003-06-04T04:30:00Z,28.8425,-94.2433,2.0,212.6136052,25.25163361,-99999.0,'11111222,11111222,99999999' 
TABS,ioos:station:wmo:42050:1,2003-06-04T05:00:00Z,28.8425,-94.2433,2.0,217.1160805,25.5702366,-99999.0,'11111222,11111222,99999999' 
TABS,ioos:station:wmo:42050:1,2003-06-04T05:30:00Z,28.8425,-94.2433,2.0,223.0994096,22.81674166,-99999.0,'11111222,11111222,99999999' 
TABS,ioos:station:wmo:42050:1,2003-06-04T06:00:00Z,28.8425,-94.2433,2.0,229.6705875,20.31902065,-99999.0,'11111222,11111222,99999999' 
TABS,ioos:station:wmo:42050:1,2003-06-04T06:30:00Z,28.8425,-94.2433,2.0,236.3911848,19.47554364,-99999.0,'11111222,11111222,99999999' 
TABS,ioos:station:wmo:42050:1,2003-06-04T07:00:00Z,28.8425,-94.2433,2.0,250.8029528,19.98103601,-99999.0,'11111222,11111222,99999999' 
TABS,ioos:station:wmo:42050:1,2003-06-04T07:30:00Z,28.8425,-94.2433,2.0,261.9928692,17.73286497,-99999.0,'11111222,11111222,99999999' 
TABS,ioos:station:wmo:42050:1,2003-06-04T08:00:00Z,28.8425,-94.2433,2.0,285.0254624,20.09706944,-99999.0,'11111222,11111222,99999999' 
TABS,ioos:station:wmo:42050:1,2003-06-04T08:30:00Z,28.8425,-94.2433,2.0,287.6907603,18.49456136,-99999.0,'11111222,11111222,99999999' 
TABS,ioos:station:wmo:42050:1,2003-06-04T09:00:00Z,28.8425,-94.2433,2.0,300.141736,17.56497936,-99999.0,'11111222,11111222,99999999' 
TABS,ioos:station:wmo:42050:1,2003-06-04T09:30:00Z,28.8425,-94.2433,2.0,310.270204,17.06403528,-99999.0,'11111222,11111222,99999999' 
TABS,ioos:station:wmo:42050:1,2003-06-04T10:00:00Z,28.8425,-94.2433,2.0,312.5333215,15.60616865,-99999.0,'11111222,11111222,99999999' 
TABS,ioos:station:wmo:42050:1,2003-06-04T10:30:00Z,28.8425,-94.2433,2.0,354.7263268,2.611053427,-99999.0,'11133222,11111222,99999999' 
TABS,ioos:station:wmo:42050:1,2003-06-04T11:00:00Z,28.8425,-94.2433,2.0,19.39223362,2.650358466,-99999.0,'11133222,11111222,99999999' 
TABS,ioos:station:wmo:42050:1,2003-06-04T11:30:00Z,28.8425,-94.2433,2.0,337.2006198,2.45155053,-99999.0,'11133222,11111222,99999999' 
TABS,ioos:station:wmo:42050:1,2003-06-04T12:00:00Z,28.8425,-94.2433,2.0,24.07301291,4.216740447,-99999.0,'11133222,11111222,99999999' 
TABS,ioos:station:wmo:42050:1,2003-06-04T12:30:00Z,28.8425,-94.2433,2.0,85.5587692,1.033102125,-99999.0,'11133222,11111222,99999999' 
TABS,ioos:station:wmo:42050:1,2003-06-04T13:00:00Z,28.8425,-94.2433,2.0,110.5804251,5.490400714,-99999.0,'11133222,11111222,99999999' 
TABS,ioos:station:wmo:42050:1,2003-06-04T13:30:00Z,28.8425,-94.2433,2.0,110.4777957,7.717700435,-99999.0,'11133222,11111222,99999999' 
TABS,ioos:station:wmo:42050:1,2003-06-04T14:00:00Z,28.8425,-94.2433,2.0,118.7883922,8.99129023,-99999.0,'11133222,11111222,99999999' 
TABS,ioos:station:wmo:42050:1,2003-06-04T14:30:00Z,28.8425,-94.2433,2.0,129.5381943,9.880713537,-99999.0,'11133222,11111222,99999999' 
TABS,ioos:station:wmo:42050:1,2003-06-04T15:00:00Z,28.8425,-94.2433,2.0,139.9622935,16.75760424,-99999.0,'11111222,11111222,99999999' 
TABS,ioos:station:wmo:42050:1,2003-06-04T15:30:00Z,28.8425,-94.2433,2.0,156.4955665,15.9972904,-99999.0,'11111222,11111222,99999999' 
TABS,ioos:station:wmo:42050:1,2003-06-04T16:00:00Z,28.8425,-94.2433,2.0,156.8943068,17.78679285,-99999.0,'11111222,11111222,99999999' 
TABS,ioos:station:wmo:42050:1,2003-06-04T16:30:00Z,28.8425,-94.2433,2.0,156.9674189,19.01587758,-99999.0,'11111222,11111222,99999999' 
TABS,ioos:station:wmo:42050:1,2003-06-04T17:00:00Z,28.8425,-94.2433,2.0,154.8890134,4.053060572,-99999.0,'11133222,11111222,99999999' 
TABS,ioos:station:wmo:42050:1,2003-06-04T17:30:00Z,28.8425,-94.2433,2.0,121.8052546,1.517926217,-99999.0,'11133222,11111222,99999999' 
TABS,ioos:station:wmo:42050:1,2003-06-04T18:00:00Z,28.8425,-94.2433,2.0,304.9260065,1.414814475,-99999.0,'11133222,11111222,99999999' 
TABS,ioos:station:wmo:42050:1,2003-06-04T18:30:00Z,28.8425,-94.2433,2.0,251.8105759,0.736817481,-99999.0,'11133222,11111222,99999999' 
TABS,ioos:station:wmo:42050:1,2003-06-04T19:00:00Z,28.8425,-94.2433,2.0,178.7951521,4.280946157,-99999.0,'11133222,11111222,99999999' 
TABS,ioos:station:wmo:42050:1,2003-06-04T19:30:00Z,28.8425,-94.2433,2.0,178.6606547,3.851051804,-99999.0,'11133222,11111222,99999999' 
TABS,ioos:station:wmo:42050:1,2003-06-04T20:00:00Z,28.8425,-94.2433,2.0,195.2856822,4.893107397,-99999.0,'11133222,11111222,99999999' 
TABS,ioos:station:wmo:42050:1,2003-06-04T20:30:00Z,28.8425,-94.2433,2.0,206.8978891,3.846101923,-99999.0,'11133222,11111222,99999999' 
TABS,ioos:station:wmo:42050:1,2003-06-04T21:00:00Z,28.8425,-94.2433,2.0,209.7159606,4.962630351,-99999.0,'11133222,11111222,99999999' 
TABS,ioos:station:wmo:42050:1,2003-06-04T21:30:00Z,28.8425,-94.2433,2.0,191.7956146,2.543717752,-99999.0,'11133222,11111222,99999999' 
TABS,ioos:station:wmo:42050:1,2003-06-04T22:00:00Z,28.8425,-94.2433,2.0,213.5605888,2.460101624,-99999.0,'11133222,11111222,99999999' 
TABS,ioos:station:wmo:42050:1,2003-06-04T22:30:00Z,28.8425,-94.2433,2.0,230.5668716,3.935936991,-99999.0,'11133222,11111222,99999999' 
TABS,ioos:station:wmo:42050:1,2003-06-04T23:00:00Z,28.8425,-94.2433,2.0,211.5247544,9.103581713,-99999.0,'11133222,11111222,99999999' 
TABS,ioos:station:wmo:42050:1,2003-06-04T23:30:00Z,28.8425,-94.2433,2.0,215.9792741,11.45538301,-99999.0,'11111222,11111222,99999999' 
TABS,ioos:station:wmo:42050:1,2003-06-05T00:00:00Z,28.8425,-94.2433,2.0,216.6599299,10.38406953,-99999.0,'11111222,11111222,99999999' 
TABS,ioos:station:wmo:42050:1,2003-06-05T00:30:00Z,28.8425,-94.2433,2.0,236.0124935,10.6975371,-99999.0,'11111222,11111222,99999999' 
TABS,ioos:station:wmo:42050:1,2003-06-05T01:00:00Z,28.8425,-94.2433,2.0,250.1341348,2.913365751,-99999.0,'11133222,11111222,99999999' 
TABS,ioos:station:wmo:42050:1,2003-06-05T01:30:00Z,28.8425,-94.2433,2.0,227.5152394,6.766461409,-99999.0,'11133222,11111222,99999999' 
TABS,ioos:station:wmo:42050:1,2003-06-05T02:00:00Z,28.8425,-94.2433,2.0,240.4997312,8.123109011,-99999.0,'11133222,11111222,99999999' 
TABS,ioos:station:wmo:42050:1,2003-06-05T02:30:00Z,28.8425,-94.2433,2.0,232.0692485,16.31679503,-99999.0,'11111222,11111222,99999999' 
TABS,ioos:station:wmo:42050:1,2003-06-05T03:00:00Z,28.8425,-94.2433,2.0,237.5636816,16.22054561,-99999.0,'11111222,11111222,99999999' 
TABS,ioos:station:wmo:42050:1,2003-06-05T03:30:00Z,28.8425,-94.2433,2.0,244.1957943,16.49469309,-99999.0,'11111222,11111222,99999999' 
TABS,ioos:station:wmo:42050:1,2003-06-05T04:00:00Z,28.8425,-94.2433,2.0,243.2420928,18.6354957,-99999.0,'11111222,11111222,99999999' 
TABS,ioos:station:wmo:42050:1,2003-06-05T04:30:00Z,28.8425,-94.2433,2.0,246.6616376,15.65046006,-99999.0,'11111222,11111222,99999999' 
TABS,ioos:station:wmo:42050:1,2003-06-05T05:00:00Z,28.8425,-94.2433,2.0,252.3409218,14.47191072,-99999.0,'11111222,11111222,99999999' 
TABS,ioos:station:wmo:42050:1,2003-06-05T05:30:00Z,28.8425,-94.2433,2.0,259.232572,12.41863116,-99999.0,'11111222,11111222,99999999' 
TABS,ioos:station:wmo:42050:1,2003-06-05T06:00:00Z,28.8425,-94.2433,2.0,270.6810067,9.260653325,-99999.0,'11133222,11111222,99999999' 
TABS,ioos:station:wmo:42050:1,2003-06-05T06:30:00Z,28.8425,-94.2433,2.0,281.0017912,14.56771773,-99999.0,'11111222,11111222,99999999' 
TABS,ioos:station:wmo:42050:1,2003-06-05T07:00:00Z,28.8425,-94.2433,2.0,266.1137681,13.28053086,-99999.0,'11111222,11111222,99999999' 
TABS,ioos:station:wmo:42050:1,2003-06-05T07:30:00Z,28.8425,-94.2433,2.0,284.3691345,14.62756986,-99999.0,'11111222,11111222,99999999' 
TABS,ioos:station:wmo:42050:1,2003-06-05T08:00:00Z,28.8425,-94.2433,2.0,286.1569965,14.15922314,-99999.0,'11111222,11111222,99999999' 
TABS,ioos:station:wmo:42050:1,2003-06-05T08:30:00Z,28.8425,-94.2433,2.0,294.6402308,15.97454225,-99999.0,'11111222,11111222,99999999' 
TABS,ioos:station:wmo:42050:1,2003-06-05T09:00:00Z,28.8425,-94.2433,2.0,313.804754,16.26699726,-99999.0,'11111222,11111222,99999999' 
TABS,ioos:station:wmo:42050:1,2003-06-05T09:30:00Z,28.8425,-94.2433,2.0,324.6696558,17.05015249,-99999.0,'11111222,11111222,99999999' 
TABS,ioos:station:wmo:42050:1,2003-06-05T10:00:00Z,28.8425,-94.2433,2.0,328.3595686,15.82184882,-99999.0,'11111222,11111222,99999999' 
TABS,ioos:station:wmo:42050:1,2003-06-05T10:30:00Z,28.8425,-94.2433,2.0,298.7977615,5.625744395,-99999.0,'11133222,11111222,99999999' 
TABS,ioos:station:wmo:42050:1,2003-06-05T11:00:00Z,28.8425,-94.2433,2.0,301.2187507,1.929378138,-99999.0,'11133222,11111222,99999999' 
TABS,ioos:station:wmo:42050:1,2003-06-05T11:30:00Z,28.8425,-94.2433,2.0,347.4598991,5.388552681,-99999.0,'11133222,11111222,99999999' 
TABS,ioos:station:wmo:42050:1,2003-06-05T12:00:00Z,28.8425,-94.2433,2.0,357.6043006,9.568364542,-99999.0,'11133222,11111222,99999999' 
TABS,ioos:station:wmo:42050:1,2003-06-05T12:30:00Z,28.8425,-94.2433,2.0,37.2634315,6.408151059,-99999.0,'11133222,11111222,99999999' 
TABS,ioos:station:wmo:42050:1,2003-06-05T13:00:00Z,28.8425,-94.2433,2.0,51.87092673,5.73338469,-99999.0,'11133222,11111222,99999999' 
TABS,ioos:station:wmo:42050:1,2003-06-05T13:30:00Z,28.8425,-94.2433,2.0,74.62673748,4.677360367,-99999.0,'11133222,11111222,99999999' 
TABS,ioos:station:wmo:42050:1,2003-06-05T14:00:00Z,28.8425,-94.2433,2.0,163.5542436,1.730809059,-99999.0,'11133222,11111222,99999999' 
TABS,ioos:station:wmo:42050:1,2003-06-05T14:30:00Z,28.8425,-94.2433,2.0,72.77114024,3.004829446,-99999.0,'11133222,11111222,99999999' 
TABS,ioos:station:wmo:42050:1,2003-06-05T15:00:00Z,28.8425,-94.2433,2.0,97.54587996,3.88363232,-99999.0,'11133222,11111222,99999999' 
TABS,ioos:station:wmo:42050:1,2003-06-05T15:30:00Z,28.8425,-94.2433,2.0,123.9221416,6.84505661,-99999.0,'11133222,11111222,99999999' 
TABS,ioos:station:wmo:42050:1,2003-06-05T16:00:00Z,28.8425,-94.2433,2.0,139.4844903,7.958102789,-99999.0,'11133222,11111222,99999999' 
TABS,ioos:station:wmo:42050:1,2003-06-05T16:30:00Z,28.8425,-94.2433,2.0,153.3316581,9.937102193,-99999.0,'11133222,11111222,99999999' 
TABS,ioos:station:wmo:42050:1,2003-06-05T17:00:00Z,28.8425,-94.2433,2.0,155.2387914,5.682429058,-99999.0,'11133222,11111222,99999999' 
TABS,ioos:station:wmo:42050:1,2003-06-05T21:00:00Z,28.8425,-94.2433,2.0,188.7156088,18.67566599,-99999.0,'11111222,11111222,99999999' 
TABS,ioos:station:wmo:42050:1,2003-06-05T21:30:00Z,28.8425,-94.2433,2.0,187.3581714,9.135233987,-99999.0,'11133222,11111222,99999999' 
TABS,ioos:station:wmo:42050:1,2003-06-05T22:00:00Z,28.8425,-94.2433,2.0,196.7960876,30.52213623,-99999.0,'11111222,11111222,99999999' 
TABS,ioos:station:wmo:42050:1,2003-06-05T22:30:00Z,28.8425,-94.2433,2.0,210.0985484,31.92466914,-99999.0,'11111222,11111222,99999999' 
TABS,ioos:station:wmo:42050:1,2003-06-05T23:00:00Z,28.8425,-94.2433,2.0,222.5920809,24.91214965,-99999.0,'11111222,11111222,99999999' 
TABS,ioos:station:wmo:42050:1,2003-06-05T23:30:00Z,28.8425,-94.2433,2.0,227.8555034,18.45011653,-99999.0,'11111222,11111222,99999999' 
TABS,ioos:station:wmo:42050:1,2003-06-06T00:00:00Z,28.8425,-94.2433,2.0,225.7496936,19.44710261,-99999.0,'11111222,11111222,99999999' 
TABS,ioos:station:wmo:42050:1,2003-06-06T00:30:00Z,28.8425,-94.2433,2.0,228.3532312,14.74721669,-99999.0,'11111222,11111222,99999999' 
TABS,ioos:station:wmo:42050:1,2003-06-06T01:00:00Z,28.8425,-94.2433,2.0,227.6746467,16.5147964,-99999.0,'11111222,11111222,99999999' 
TABS,ioos:station:wmo:42050:1,2003-06-06T01:30:00Z,28.8425,-94.2433,2.0,225.5843135,4.158004329,-99999.0,'11133222,11111222,99999999' 
TABS,ioos:station:wmo:42050:1,2003-06-06T02:00:00Z,28.8425,-94.2433,2.0,249.0999443,15.22147496,-99999.0,'11111222,11111222,99999999' 
TABS,ioos:station:wmo:42050:1,2003-06-07T02:00:00Z,28.8425,-94.2433,2.0,187.1247892,8.223502903,-99999.0,'11133222,11111222,99999999' 
TABS,ioos:station:wmo:42050:1,2003-06-07T02:30:00Z,28.8425,-94.2433,2.0,183.2527245,13.04101223,-99999.0,'11111222,11111222,99999999' 
TABS,ioos:station:wmo:42050:1,2003-06-07T03:00:00Z,28.8425,-94.2433,2.0,193.8177668,15.28228059,-99999.0,'11111222,11111222,99999999' 
TABS,ioos:station:wmo:42050:1,2003-06-07T03:30:00Z,28.8425,-94.2433,2.0,189.3297801,17.08603231,-99999.0,'11111222,11111222,99999999' 
TABS,ioos:station:wmo:42050:1,2003-06-07T04:00:00Z,28.8425,-94.2433,2.0,196.8385025,16.91526234,-99999.0,'11111222,11111222,99999999' 
TABS,ioos:station:wmo:42050:1,2003-06-07T04:30:00Z,28.8425,-94.2433,2.0,203.9307586,12.94261952,-99999.0,'11111222,11111222,99999999' 
TABS,ioos:station:wmo:42050:1,2003-06-07T05:00:00Z,28.8425,-94.2433,2.0,199.9715268,12.97000386,-99999.0,'11111222,11111222,99999999' 
TABS,ioos:station:wmo:42050:1,2003-06-07T05:30:00Z,28.8425,-94.2433,2.0,197.0357684,10.10332618,-99999.0,'11111222,11111222,99999999' 
TABS,ioos:station:wmo:42050:1,2003-06-07T06:00:00Z,28.8425,-94.2433,2.0,204.2124931,6.973463989,-99999.0,'11133222,11111222,99999999' 
TABS,ioos:station:wmo:42050:1,2003-06-07T06:30:00Z,28.8425,-94.2433,2.0,196.6723084,4.112906515,-99999.0,'11133222,11111222,99999999' 
TABS,ioos:station:wmo:42050:1,2003-06-07T07:00:00Z,28.8425,-94.2433,2.0,188.6223735,4.935787678,-99999.0,'11133222,11111222,99999999' 
TABS,ioos:station:wmo:42050:1,2003-06-07T07:30:00Z,28.8425,-94.2433,2.0,161.0608296,4.313513649,-99999.0,'11133222,11111222,99999999' 
TABS,ioos:station:wmo:42050:1,2003-06-07T08:00:00Z,28.8425,-94.2433,2.0,94.26121328,2.557068634,-99999.0,'11133222,11111222,99999999' 
TABS,ioos:station:wmo:42050:1,2003-06-07T08:30:00Z,28.8425,-94.2433,2.0,148.865329,2.301521236,-99999.0,'11133222,11111222,99999999' 
TABS,ioos:station:wmo:42050:1,2003-06-07T09:00:00Z,28.8425,-94.2433,2.0,98.31610751,4.35580073,-99999.0,'11133222,11111222,99999999' 
TABS,ioos:station:wmo:42050:1,2003-06-07T09:30:00Z,28.8425,-94.2433,2.0,65.32881506,5.007055023,-99999.0,'11133222,11111222,99999999' 
TABS,ioos:station:wmo:42050:1,2003-06-07T10:00:00Z,28.8425,-94.2433,2.0,66.83077097,5.134082196,-99999.0,'11133222,11111222,99999999' 
TABS,ioos:station:wmo:42050:1,2003-06-07T10:30:00Z,28.8425,-94.2433,2.0,31.32025544,2.481632527,-99999.0,'11133222,11111222,99999999' 
TABS,ioos:station:wmo:42050:1,2003-06-07T11:00:00Z,28.8425,-94.2433,2.0,32.52679209,3.961376024,-99999.0,'11133222,11111222,99999999' 
TABS,ioos:station:wmo:42050:1,2003-06-07T11:30:00Z,28.8425,-94.2433,2.0,106.0442293,1.592011306,-99999.0,'11133222,11111222,99999999' 
TABS,ioos:station:wmo:42050:1,2003-06-07T12:00:00Z,28.8425,-94.2433,2.0,90.0,2.81,-99999.0,'11133222,11111222,99999999' 
TABS,ioos:station:wmo:42050:1,2003-06-07T12:30:00Z,28.8425,-94.2433,2.0,88.20776145,7.673753971,-99999.0,'11133222,11111222,99999999' 
TABS,ioos:station:wmo:42050:1,2003-06-07T13:00:00Z,28.8425,-94.2433,2.0,63.90463686,4.364951317,-99999.0,'11133222,11111222,99999999' 
TABS,ioos:station:wmo:42050:1,2003-06-07T13:30:00Z,28.8425,-94.2433,2.0,33.05289906,2.493531632,-99999.0,'11133222,11111222,99999999' 
TABS,ioos:station:wmo:42050:1,2003-06-07T14:00:00Z,28.8425,-94.2433,2.0,108.6311229,5.54034295,-99999.0,'11133222,11111222,99999999' 
TABS,ioos:station:wmo:42050:1,2003-06-07T14:30:00Z,28.8425,-94.2433,2.0,77.03552166,5.705436004,-99999.0,'11133222,11111222,99999999' 
TABS,ioos:station:wmo:42050:1,2003-06-07T15:00:00Z,28.8425,-94.2433,2.0,90.2233737,5.130038986,-99999.0,'11133222,11111222,99999999' 
TABS,ioos:station:wmo:42050:1,2003-06-07T15:30:00Z,28.8425,-94.2433,2.0,105.9681492,3.453244851,-99999.0,'11133222,11111222,99999999' 
TABS,ioos:station:wmo:42050:1,2003-06-07T16:00:00Z,28.8425,-94.2433,2.0,100.486821,4.50525249,-99999.0,'11133222,11111222,99999999' 
TABS,ioos:station:wmo:42050:1,2003-06-07T16:30:00Z,28.8425,-94.2433,2.0,114.0454433,6.307336997,-99999.0,'11133222,11111222,99999999' 
TABS,ioos:station:wmo:42050:1,2003-06-07T17:00:00Z,28.8425,-94.2433,2.0,128.8060043,7.340190733,-99999.0,'11133222,11111222,99999999' 
TABS,ioos:station:wmo:42050:1,2003-06-07T17:30:00Z,28.8425,-94.2433,2.0,120.0028985,7.159357513,-99999.0,'11133222,11111222,99999999' 
TABS,ioos:station:wmo:42050:1,2003-06-07T18:00:00Z,28.8425,-94.2433,2.0,128.8819414,11.67720001,-99999.0,'11111222,11111222,99999999' 
TABS,ioos:station:wmo:42050:1,2003-06-07T18:30:00Z,28.8425,-94.2433,2.0,107.450945,12.33786448,-99999.0,'11111222,11111222,99999999' 
TABS,ioos:station:wmo:42050:1,2003-06-07T19:00:00Z,28.8425,-94.2433,2.0,112.3252753,8.529343468,-99999.0,'11133222,11111222,99999999' 
TABS,ioos:station:wmo:42050:1,2003-06-07T19:30:00Z,28.8425,-94.2433,2.0,103.1131991,15.20653149,-99999.0,'11111222,11111222,99999999' 
TABS,ioos:station:wmo:42050:1,2003-06-07T20:00:00Z,28.8425,-94.2433,2.0,98.47413642,4.003710779,-99999.0,'11133222,11111222,99999999' 
TABS,ioos:station:wmo:42050:1,2003-06-07T20:30:00Z,28.8425,-94.2433,2.0,100.3305887,5.966724395,-99999.0,'11133222,11111222,99999999' 
TABS,ioos:station:wmo:42050:1,2003-06-07T21:00:00Z,28.8425,-94.2433,2.0,104.9522347,10.61956685,-99999.0,'11111222,11111222,99999999' 
TABS,ioos:station:wmo:42050:1,2003-06-07T21:30:00Z,28.8425,-94.2433,2.0,109.8993721,12.86834877,-99999.0,'11111222,11111222,99999999' 
TABS,ioos:station:wmo:42050:1,2003-06-07T22:00:00Z,28.8425,-94.2433,2.0,116.3993952,7.736827515,-99999.0,'11133222,11111222,99999999' 
TABS,ioos:station:wmo:42050:1,2003-06-07T22:30:00Z,28.8425,-94.2433,2.0,127.1622994,7.052091888,-99999.0,'11133222,11111222,99999999' 
TABS,ioos:station:wmo:42050:1,2003-06-07T23:00:00Z,28.8425,-94.2433,2.0,133.9407682,4.208004278,-99999.0,'11133222,11111222,99999999' 
TABS,ioos:station:wmo:42050:1,2003-06-07T23:30:00Z,28.8425,-94.2433,2.0,111.7855003,6.709172825,-99999.0,'11133222,11111222,99999999' 
TABS,ioos:station:wmo:42050:1,2003-06-08T00:00:00Z,28.8425,-94.2433,2.0,101.6376183,8.229167637,-99999.0,'11133222,11111222,99999999' 
TABS,ioos:station:wmo:42050:1,2003-06-08T00:30:00Z,28.8425,-94.2433,2.0,117.2528275,6.333000868,-99999.0,'11133222,11111222,99999999' 
TABS,ioos:station:wmo:42050:1,2003-06-08T01:00:00Z,28.8425,-94.2433,2.0,121.1460086,4.31149626,-99999.0,'11133222,11111222,99999999' 